Location: Kerguer�zec
(48.4509°N, 4.7600°W)
Time: 07:16:38
(UTC+00:00)

SPOT 5 - Pass Details

Date: 09 April 2020
Orbit: 624 x 814 km, 98.3° (Epoch: 02 June)

Event Time Altitude Azimuth Distance (km) Brightness Sun altitude
Exits shadow 22:10:49 61° 301° (WNW) 712 3.0 -26.8°
Drops below altitude 10° 22:14:37 10° 341° (NNW) 2,010 6.1 -27.1°
Sets 22:16:51 0° 344° (NNW) 2,929 7.1 -27.3°
